Destin, FL

3:10 AM CDT on May 26, 2017 (GMT -0500)
Destin-Fort Walton Beach

Weather History for KDTS - September, 2013

Change the Weather History Date:

Tuesday, September 24, 2013

  Actual Average Record
Temperature  
Mean Temperature 78 °F -  
Max Temperature 84 °F 82 °F 96 °F (2016)
Min Temperature 73 °F 67 °F 62 °F (1999)
Cooling Degree Days 14    
Growing Degree Days 28 (Base 50)    
Moisture  
Dew Point 74 °F    
Average Humidity 84    
Maximum Humidity 94    
Minimum Humidity 74    
Precipitation  
Precipitation 2.10 in - - ()
Sea Level Pressure  
Sea Level Pressure 29.85 in    
Wind  
Wind Speed 6 mph (ESE)    
Max Wind Speed 20 mph    
Max Gust Speed 29 mph    
Visibility 9 miles    
Events Fog , Rain , Thunderstorm    
Averages and records for this station are not official NWS values.
T = Trace of Precipitation, MM = Missing Value Source: NWS Daily Summary

Daily Weather History Graph

Daily Weather History Graph

Search for Another Location

Airport or City:

Trip Planner

Search our weather history database for the weather conditions in past years. The results will help you decide how hot, cold, wet, or windy it might be!

Date:

Astronomy

Sep. 24, 2013 Rise Set
Actual Time 6:35 AM CDT 6:39 PM CDT
Civil Twilight 6:11 AM CDT 7:03 PM CDT
Nautical Twilight 5:43 AM CDT 7:31 PM CDT
Astronomical Twilight 5:15 AM CDT 7:59 PM CDT
Moon 10:18 PM CDT (9/24) 11:28 AM CDT (9/24)
Length of Visible Light 12h 52m
Length of Day
12h 04m
Waning Gibbous, 73% of the Moon is Illuminated
Sep 24
Waning Gibbous
Sep 26
Last Quarter
Oct 4
New
Oct 11
First Quarter
Oct 18
Full

Hourly Weather History & Observations

Time (CDT) Temp. Heat Index Dew Point Humidity Pressure Visibility Wind Dir Wind Speed Gust Speed Precip Events Conditions
12:34 AM 78.8 °F - 75.2 °F 89% 29.89 in 10.0 mi ENE 5.8 mph - N/A   Partly Cloudy
12:53 AM 78.1 °F - 73.9 °F 87% 29.88 in 10.0 mi ENE 8.1 mph - N/A   Mostly Cloudy
1:22 AM 78.8 °F - 73.4 °F 83% 29.89 in 10.0 mi ENE 4.6 mph - N/A   Mostly Cloudy
1:33 AM 78.8 °F - 73.4 °F 83% 29.89 in 10.0 mi ENE 5.8 mph - N/A   Overcast
1:53 AM 78.1 °F - 73.9 °F 87% 29.88 in 10.0 mi East 6.9 mph - 0.00 in Rain Light Rain
2:48 AM 77.0 °F - 73.4 °F 89% 29.87 in 10.0 mi ENE 5.8 mph - 0.01 in   Mostly Cloudy
2:53 AM 77.0 °F - 73.9 °F 90% 29.87 in 10.0 mi ENE 5.8 mph - 0.01 in   Scattered Clouds
3:05 AM 77.0 °F - 73.4 °F 89% 29.88 in 10.0 mi Calm Calm - N/A   Mostly Cloudy
3:53 AM 77.0 °F - 73.9 °F 90% 29.87 in 10.0 mi East 5.8 mph - N/A   Mostly Cloudy
4:19 AM 77.0 °F - 73.4 °F 89% 29.88 in 10.0 mi East 3.5 mph - N/A   Overcast
4:53 AM 77.0 °F - 73.9 °F 90% 29.88 in 10.0 mi East 4.6 mph - N/A   Overcast
5:53 AM 77.0 °F - 73.9 °F 90% 29.89 in 10.0 mi East 4.6 mph - N/A   Overcast
6:53 AM 77.0 °F - 73.9 °F 90% 29.90 in 10.0 mi East 6.9 mph - N/A   Overcast
7:53 AM 77.0 °F - 73.9 °F 90% 29.91 in 10.0 mi East 6.9 mph - N/A   Overcast
8:53 AM 78.1 °F - 73.9 °F 87% 29.91 in 10.0 mi East 6.9 mph - N/A   Overcast
9:53 AM 80.1 °F 85.1 °F 75.0 °F 85% 29.91 in 10.0 mi East 6.9 mph - N/A   Overcast
10:06 AM 80.6 °F 85.4 °F 73.4 °F 79% 29.91 in 10.0 mi ENE 5.8 mph - N/A   Overcast
10:53 AM 81.0 °F 86.7 °F 75.0 °F 82% 29.90 in 10.0 mi SE 5.8 mph - N/A   Overcast
11:22 AM 82.4 °F 88.2 °F 73.4 °F 74% 29.90 in 10.0 mi ESE 6.9 mph - N/A   Overcast
11:53 AM 82.0 °F 87.9 °F 73.9 °F 76% 29.90 in 10.0 mi ESE 5.8 mph - N/A   Overcast
12:53 PM 82.9 °F 89.4 °F 73.9 °F 74% 29.88 in 10.0 mi SE 6.9 mph - N/A   Scattered Clouds
1:04 PM 82.4 °F 89.5 °F 75.2 °F 79% 29.88 in 10.0 mi Variable 6.9 mph - N/A   Mostly Cloudy
1:45 PM 82.4 °F 88.2 °F 73.4 °F 74% 29.86 in 10.0 mi ESE 6.9 mph - N/A   Mostly Cloudy
1:53 PM 82.0 °F 87.9 °F 73.9 °F 76% 29.85 in 10.0 mi ESE 6.9 mph - N/A   Mostly Cloudy
2:53 PM 84.0 °F 91.9 °F 75.0 °F 74% 29.82 in 10.0 mi ENE 3.5 mph - 0.00 in   Partly Cloudy
3:14 PM 84.2 °F 92.3 °F 75.2 °F 74% 29.83 in 10.0 mi SE 6.9 mph - N/A   Mostly Cloudy
3:23 PM 82.4 °F 89.5 °F 75.2 °F 79% 29.83 in 10.0 mi SE 8.1 mph - N/A   Scattered Clouds
3:50 PM 82.4 °F 89.5 °F 75.2 °F 79% 29.82 in 10.0 mi SE 6.9 mph - N/A   Mostly Cloudy
3:53 PM 82.9 °F 90.2 °F 75.0 °F 77% 29.82 in 10.0 mi SE 6.9 mph - N/A   Mostly Cloudy
4:01 PM 82.4 °F 89.5 °F 75.2 °F 79% 29.82 in 10.0 mi SE 8.1 mph - N/A   Scattered Clouds
4:53 PM 82.9 °F 90.2 °F 75.0 °F 77% 29.82 in 10.0 mi SE 6.9 mph - N/A   Partly Cloudy
5:08 PM 82.4 °F 89.5 °F 75.2 °F 79% 29.82 in 10.0 mi ESE 8.1 mph - N/A   Mostly Cloudy
5:39 PM 82.4 °F 89.5 °F 75.2 °F 79% 29.81 in 10.0 mi ESE 8.1 mph - N/A   Overcast
5:53 PM 82.9 °F 90.2 °F 75.0 °F 77% 29.82 in 10.0 mi SE 9.2 mph - N/A   Mostly Cloudy
6:25 PM 82.4 °F 89.5 °F 75.2 °F 79% 29.81 in 10.0 mi SE 5.8 mph - 0.00 in Rain , Thunderstorm Light Rain
6:40 PM 80.6 °F 86.2 °F 75.2 °F 84% 29.81 in 10.0 mi SE 5.8 mph - 0.00 in Rain Light Rain
6:53 PM 82.0 °F 88.6 °F 75.0 °F 79% 29.82 in 10.0 mi SE 5.8 mph - 0.00 in   Overcast
7:11 PM 82.4 °F 89.5 °F 75.2 °F 79% 29.82 in 10.0 mi SSE 5.8 mph - N/A   Overcast
7:31 PM 82.4 °F 89.5 °F 75.2 °F 79% 29.81 in 10.0 mi SE 8.1 mph - N/A Thunderstorm Mostly Cloudy
7:53 PM 81.0 °F 86.7 °F 75.0 °F 82% 29.82 in 10.0 mi ESE 4.6 mph - 0.00 in Rain , Thunderstorm Light Thunderstorms and Rain
8:09 PM 78.8 °F - 73.4 °F 83% 29.85 in 2.5 mi NNW 19.6 mph 28.8 mph 0.15 in Rain , Thunderstorm Heavy Thunderstorms and Rain
8:14 PM 75.2 °F - 71.6 °F 89% 29.86 in 0.8 mi NW 10.4 mph 28.8 mph 0.56 in Rain , Thunderstorm Heavy Thunderstorms and Rain
8:21 PM 73.4 °F - 71.6 °F 94% 29.86 in 0.5 mi Variable 5.8 mph 21.9 mph 1.20 in Fog , Rain , Thunderstorm Heavy Thunderstorms and Rain
8:37 PM 73.4 °F - 69.8 °F 88% 29.82 in 1.0 mi ENE 9.2 mph - 1.96 in Rain , Thunderstorm Heavy Thunderstorms and Rain
8:41 PM 73.4 °F - 69.8 °F 88% 29.83 in 2.5 mi Variable 4.6 mph - 1.96 in Rain , Thunderstorm Heavy Thunderstorms and Rain
8:48 PM 73.4 °F - 71.6 °F 94% 29.85 in 5.0 mi SSW 3.5 mph - 1.99 in Rain , Thunderstorm Heavy Thunderstorms and Rain
8:53 PM 73.0 °F - 71.1 °F 93% 29.86 in 4.0 mi SSW 4.6 mph - 2.01 in Rain , Thunderstorm Heavy Thunderstorms and Rain
9:53 PM 73.9 °F - 71.1 °F 91% 29.82 in 10.0 mi Calm Calm - 0.07 in Rain Light Rain
10:53 PM 75.0 °F - 72.0 °F 90% 29.80 in 8.0 mi Calm Calm - 0.01 in Rain Light Rain
11:53 PM 75.0 °F - 72.0 °F 90% 29.79 in 10.0 mi Calm Calm - 0.00 in   Clear